Location: Klein M�hlingen
(51.9472°N, 11.7453°E)
Time: 15:53:14
(UTC+00:00)

Nauka - Pass Details

Date: 04 October 2021
Orbit: 417 x 423 km, 51.6° (Epoch: 19 October)

Event Time Altitude Azimuth Distance (km) Brightness Sun altitude
Rises 17:31:13 0° 283° (WNW) 2,366 ? -8.2°
Reaches altitude 10° 17:33:29 10° 271° (W) 1,500 ? -8.6°
Maximum altitude 17:36:25 28° 211° (SSW) 825 ? -9.0°
Drops below altitude 10° 17:39:20 10° 150° (SSE) 1,495 ? -9.5°
Enters shadow 17:40:25 - 143° (SE) 1,901 ? -9.6°
